AFL740 UUDD-UUDL

Flight info

Callsign AFL740
Flight time 0h 34m
Altitude 250
Route RILPO T753 RANTO
Aircraft A320/M-VGDW/C

Departure

Time 2026-05-06 14:28
Airport Domodedovo International Airport (UUDD)

Arrival

Time 2026-05-06 15:02
Airport Golden Ring Yaroslavl International Airport (UUDL)
Time Latitude Longitude Altitude Speed Heading
2026-05-06 14:15 55.41139 37.89636 578 ft 0 kts 55°
2026-05-06 14:22 55.41140 37.89638 578 ft 0 kts 55°
2026-05-06 14:22 55.41149 37.89670 582 ft 6 kts 72°
2026-05-06 14:23 55.41110 37.89756 580 ft 12 kts 145°
2026-05-06 14:23 55.41033 37.89851 570 ft 15 kts 145°
2026-05-06 14:23 55.40943 37.89938 570 ft 15 kts 186°
2026-05-06 14:23 55.40882 37.89813 568 ft 12 kts 236°
2026-05-06 14:24 55.40838 37.89699 568 ft 10 kts 236°
2026-05-06 14:24 55.40802 37.89614 569 ft 7 kts 214°
2026-05-06 14:24 55.40753 37.89573 569 ft 10 kts 229°
2026-05-06 14:24 55.40702 37.89440 568 ft 16 kts 236°
2026-05-06 14:25 55.40609 37.89380 570 ft 16 kts 147°
2026-05-06 14:25 55.40514 37.89495 568 ft 17 kts 145°
2026-05-06 14:25 55.40418 37.89611 567 ft 17 kts 145°
2026-05-06 14:25 55.40322 37.89726 564 ft 17 kts 145°
2026-05-06 14:26 55.40227 37.89841 560 ft 17 kts 146°
2026-05-06 14:26 55.40132 37.89955 560 ft 17 kts 145°
2026-05-06 14:26 55.40043 37.90062 558 ft 13 kts 148°
2026-05-06 14:26 55.40023 37.90007 554 ft 6 kts 296°
2026-05-06 14:27 55.40046 37.89927 558 ft 9 kts 296°
2026-05-06 14:27 55.40080 37.89803 560 ft 13 kts 296°
2026-05-06 14:27 55.40127 37.89633 563 ft 17 kts 296°
2026-05-06 14:27 55.40234 37.89467 564 ft 35 kts 325°
2026-05-06 14:28 55.40648 37.88972 572 ft 104 kts 326°
2026-05-06 14:28 55.41406 37.88061 593 ft 156 kts 326°
2026-05-06 14:28 55.42272 37.86983 1319 ft 153 kts 320°
2026-05-06 14:28 55.43020 37.85636 2081 ft 150 kts 310°
2026-05-06 14:29 55.43695 37.84256 2763 ft 150 kts 308°
2026-05-06 14:29 55.44386 37.82827 3309 ft 161 kts 308°
2026-05-06 14:29 55.45165 37.81222 3647 ft 183 kts 309°
2026-05-06 14:29 55.46050 37.79415 4048 ft 204 kts 309°
2026-05-06 14:30 55.47129 37.77751 4820 ft 214 kts 330°
2026-05-06 14:30 55.48597 37.76756 5363 ft 235 kts 337°
2026-05-06 14:30 55.50158 37.75786 6266 ft 240 kts 335°
2026-05-06 14:30 55.51747 37.74825 7156 ft 244 kts 339°
2026-05-06 14:31 55.53497 37.74771 7889 ft 270 kts
2026-05-06 14:31 55.55328 37.76010 8454 ft 291 kts 22°
2026-05-06 14:31 55.57110 37.77838 9288 ft 301 kts 27°
2026-05-06 14:31 55.58861 37.79864 10083 ft 307 kts 29°
2026-05-06 14:32 55.60652 37.81969 10893 ft 311 kts 28°
2026-05-06 14:32 55.62479 37.84049 11728 ft 314 kts 27°
2026-05-06 14:32 55.64424 37.85799 12552 ft 312 kts 14°
2026-05-06 14:32 55.66521 37.86692 13374 ft 309 kts
2026-05-06 14:33 55.68661 37.86781 14128 ft 309 kts 354°
2026-05-06 14:33 55.70819 37.86719 14850 ft 312 kts 354°
2026-05-06 14:33 55.73000 37.86669 15562 ft 315 kts 354°
2026-05-06 14:33 55.75212 37.86626 16264 ft 319 kts 354°
2026-05-06 14:34 55.77452 37.86592 16960 ft 323 kts 355°
2026-05-06 14:34 55.79713 37.86558 17643 ft 327 kts 355°
2026-05-06 14:34 55.81982 37.86523 18312 ft 331 kts 355°
2026-05-06 14:34 55.84302 37.86492 18912 ft 335 kts 356°
2026-05-06 14:35 55.86647 37.86935 19509 ft 343 kts
2026-05-06 14:35 55.89003 37.88252 19706 ft 366 kts 19°
2026-05-06 14:35 55.91390 37.90037 20101 ft 375 kts 19°
2026-05-06 14:35 55.93804 37.91849 20665 ft 379 kts 19°
2026-05-06 14:36 55.96260 37.93629 21227 ft 381 kts 14°
2026-05-06 14:36 55.98797 37.94697 21784 ft 379 kts
2026-05-06 14:36 56.01416 37.94859 22358 ft 376 kts 352°
2026-05-06 14:36 56.03987 37.94135 22920 ft 374 kts 341°
2026-05-06 14:37 56.06436 37.92612 23464 ft 373 kts 334°
2026-05-06 14:37 56.08852 37.90884 23957 ft 375 kts 334°
2026-05-06 14:37 56.11292 37.89146 24434 ft 378 kts 335°
2026-05-06 14:37 56.13843 37.87856 24785 ft 385 kts 345°
2026-05-06 14:38 56.16556 37.87420 24873 ft 401 kts 356°
2026-05-06 14:38 56.19400 37.87763 24891 ft 418 kts
2026-05-06 14:38 56.22344 37.88193 24886 ft 431 kts
2026-05-06 14:38 56.25361 37.88630 24888 ft 438 kts
2026-05-06 14:39 56.28409 37.89071 24906 ft 440 kts
2026-05-06 14:39 56.31456 37.89511 24891 ft 440 kts
2026-05-06 14:39 56.34508 37.89951 24888 ft 440 kts
2026-05-06 14:39 56.37524 37.90385 24890 ft 439 kts
2026-05-06 14:40 56.40574 37.90821 24887 ft 439 kts 360°
2026-05-06 14:40 56.43618 37.91242 24894 ft 439 kts 360°
2026-05-06 14:40 56.46664 37.91651 24894 ft 439 kts 360°
2026-05-06 14:40 56.49714 37.92054 24891 ft 439 kts 360°
2026-05-06 14:41 56.52760 37.92460 24912 ft 439 kts 359°
2026-05-06 14:41 56.55810 37.92873 24903 ft 439 kts 359°
2026-05-06 14:41 56.58862 37.93289 24896 ft 439 kts 359°
2026-05-06 14:41 56.61913 37.93708 24903 ft 439 kts 359°
2026-05-06 14:42 56.64957 37.94430 24901 ft 444 kts
2026-05-06 14:42 56.67935 37.96077 24897 ft 451 kts 17°
2026-05-06 14:42 56.70749 37.98659 24896 ft 457 kts 27°
2026-05-06 14:42 56.73314 38.02118 24892 ft 462 kts 38°
2026-05-06 14:43 56.75608 38.06154 24892 ft 464 kts 41°
2026-05-06 14:43 56.77906 38.10280 24884 ft 464 kts 41°
2026-05-06 14:43 56.80209 38.14418 24889 ft 464 kts 41°
2026-05-06 14:43 56.82515 38.18559 24882 ft 465 kts 41°
2026-05-06 14:44 56.84819 38.22705 24895 ft 465 kts 40°
2026-05-06 14:44 56.87120 38.26851 24893 ft 465 kts 40°
2026-05-06 14:44 56.89477 38.30897 24893 ft 464 kts 38°
2026-05-06 14:45 56.94367 38.38559 24888 ft 462 kts 35°
2026-05-06 14:45 56.96853 38.42302 24887 ft 462 kts 35°
2026-05-06 14:45 56.99331 38.46050 24877 ft 462 kts 35°
2026-05-06 14:45 57.01795 38.49833 24874 ft 462 kts 36°
2026-05-06 14:46 57.04250 38.53658 24877 ft 463 kts 36°
2026-05-06 14:46 57.06690 38.57511 24890 ft 463 kts 36°
2026-05-06 14:46 57.09122 38.61385 24877 ft 463 kts 36°
2026-05-06 14:46 57.10736 38.63965 24874 ft 463 kts 36°
2026-05-06 14:47 57.13167 38.67854 24870 ft 463 kts 36°
2026-05-06 14:47 57.15600 38.71748 24330 ft 464 kts 36°
2026-05-06 14:47 57.18836 38.76922 23261 ft 463 kts 36°
2026-05-06 14:47 57.21262 38.80804 22494 ft 460 kts 36°
2026-05-06 14:48 57.22888 38.83410 22042 ft 457 kts 36°
2026-05-06 14:48 57.25246 38.87188 21379 ft 452 kts 36°
2026-05-06 14:48 57.27610 38.90973 20737 ft 448 kts 36°
2026-05-06 14:48 57.29951 38.94726 20130 ft 444 kts 36°
2026-05-06 14:49 57.32272 38.98452 19533 ft 439 kts 36°
2026-05-06 14:49 57.34563 39.02144 18960 ft 435 kts 36°
2026-05-06 14:49 57.36830 39.05808 18397 ft 431 kts 36°
2026-05-06 14:49 57.39081 39.09457 17784 ft 427 kts 37°
2026-05-06 14:50 57.41305 39.13071 17228 ft 422 kts 37°
2026-05-06 14:50 57.43508 39.16647 16668 ft 418 kts 37°
2026-05-06 14:50 57.45550 39.20489 16103 ft 420 kts 48°
2026-05-06 14:50 57.47113 39.25086 15519 ft 423 kts 62°
2026-05-06 14:51 57.48092 39.30159 14934 ft 423 kts 76°
2026-05-06 14:51 57.48469 39.35586 14349 ft 424 kts 89°
2026-05-06 14:51 57.48416 39.41069 13738 ft 423 kts 92°
2026-05-06 14:51 57.48347 39.46528 13066 ft 422 kts 92°
2026-05-06 14:52 57.48280 39.51974 12421 ft 420 kts 91°
2026-05-06 14:52 57.48210 39.57393 11768 ft 417 kts 91°
2026-05-06 14:52 57.48137 39.62762 11116 ft 415 kts 91°
2026-05-06 14:52 57.48061 39.68105 10566 ft 409 kts 91°
2026-05-06 14:53 57.47984 39.73280 10434 ft 390 kts 91°
2026-05-06 14:53 57.47912 39.78067 10305 ft 362 kts 91°
2026-05-06 14:53 57.47842 39.82578 10135 ft 338 kts 91°
2026-05-06 14:53 57.47773 39.86874 9679 ft 328 kts 91°
2026-05-06 14:54 57.47705 39.91058 9502 ft 323 kts 91°
2026-05-06 14:54 57.47636 39.95228 9375 ft 324 kts 91°
2026-05-06 14:54 57.47566 39.99403 9083 ft 323 kts 91°
2026-05-06 14:54 57.47494 40.03573 8692 ft 321 kts 91°
2026-05-06 14:55 57.47420 40.07708 8212 ft 321 kts 91°
2026-05-06 14:55 57.47343 40.11803 7675 ft 313 kts 91°
2026-05-06 14:55 57.47268 40.15797 7095 ft 307 kts 91°
2026-05-06 14:55 57.47196 40.19678 6689 ft 304 kts 91°
2026-05-06 14:56 57.47336 40.23582 6260 ft 302 kts 77°
2026-05-06 14:56 57.47965 40.27257 5838 ft 299 kts 63°
2026-05-06 14:56 57.48892 40.30699 5445 ft 295 kts 61°
2026-05-06 14:56 57.49810 40.34088 5057 ft 292 kts 62°
2026-05-06 14:57 57.50717 40.37452 4581 ft 290 kts 62°
2026-05-06 14:57 57.51607 40.40768 4013 ft 281 kts 62°
2026-05-06 14:57 57.52462 40.43958 3556 ft 272 kts 60°
2026-05-06 14:57 57.53632 40.46600 3104 ft 267 kts 33°
2026-05-06 14:58 57.55301 40.47931 2652 ft 259 kts
2026-05-06 14:58 57.57049 40.47689 2389 ft 245 kts 339°
2026-05-06 14:58 57.58540 40.46401 2320 ft 229 kts 332°
2026-05-06 14:58 57.59929 40.45114 2243 ft 216 kts 332°
2026-05-06 14:59 57.61143 40.43602 2157 ft 205 kts 312°
2026-05-06 14:59 57.61857 40.41441 2068 ft 194 kts 288°
2026-05-06 14:59 57.62023 40.39007 1996 ft 187 kts 266°
2026-05-06 14:59 57.61661 40.36696 1996 ft 188 kts 246°
2026-05-06 15:00 57.61078 40.34514 2000 ft 187 kts 246°
2026-05-06 15:00 57.60499 40.32341 1929 ft 185 kts 246°
2026-05-06 15:00 57.59952 40.30293 1753 ft 172 kts 246°
2026-05-06 15:00 57.59434 40.28354 1516 ft 163 kts 246°
2026-05-06 15:01 57.58948 40.26536 1359 ft 147 kts 246°
2026-05-06 15:01 57.58506 40.24878 1108 ft 139 kts 248°
2026-05-06 15:01 57.58088 40.23297 918 ft 134 kts 244°
2026-05-06 15:01 57.57679 40.21770 808 ft 132 kts 246°
2026-05-06 15:02 57.57275 40.20248 573 ft 129 kts 246°
2026-05-06 15:02 57.56866 40.18723 431 ft 133 kts 246°
2026-05-06 15:02 57.56461 40.17221 316 ft 124 kts 244°
2026-05-06 15:02 57.56184 40.16189 310 ft 46 kts 243°
2026-05-06 15:03 57.56145 40.16035 310 ft 2 kts 329°
2026-05-06 15:03 57.56168 40.16066 309 ft 7 kts 60°
2026-05-06 15:03 57.56193 40.16179 311 ft 12 kts 68°
2026-05-06 15:03 57.56235 40.16366 309 ft 19 kts 66°
2026-05-06 15:04 57.56300 40.16611 309 ft 24 kts 63°
2026-05-06 15:04 57.56382 40.16913 312 ft 28 kts 63°
2026-05-06 15:04 57.56477 40.17261 312 ft 32 kts 63°
2026-05-06 15:04 57.56545 40.17566 310 ft 15 kts 97°
2026-05-06 15:05 57.56476 40.17659 312 ft 11 kts 156°
2026-05-06 15:05 57.56409 40.17657 312 ft 9 kts 198°
2026-05-06 15:05 57.56377 40.17627 312 ft 0 kts 209°